| time (UTC) | temp F | wind direction | speed MPH | gust MPH | rain 1hr in | rain 24hr in | rain mn in | humidity % | barometer mb |
| 20260904051038 | 69 | 42 | 5.0 | 9.0 | 0.00 | 0.00 | 0.00 | 49 | 1014.5 |
| 20260904050537 | 69 | 38 | 3.0 | 7.0 | 0.00 | 0.00 | 0.00 | 46 | 1014.7 |
| 20260904045538 | 69 | 40 | 2.0 | 4.0 | 0.00 | 0.00 | 0.00 | 46 | 1015.0 |
| 20260904045038 | 69 | 0 | 0.0 | 3.0 | 0.00 | 0.00 | 0.00 | 46 | 1015.1 |
| 20260904044612 | 69 | 60 | 1.0 | 4.0 | 0.00 | 0.00 | 0.00 | 46 | 1015.0 |
| 20260904044038 | 69 | 30 | 0.0 | 4.0 | 0.00 | 0.00 | 0.00 | 46 | 1014.9 |
| 20260904043538 | 70 | 29 | 1.0 | 3.0 | 0.00 | 0.00 | 0.00 | 45 | 1014.9 |
| 20260904043100 | 70 | 31 | 1.0 | 4.0 | 0.00 | 0.00 | 0.00 | 44 | 1014.8 |
| 20260904042537 | 70 | 36 | 2.0 | 4.0 | 0.00 | 0.00 | 0.00 | 44 | 1014.9 |
| 20260904042041 | 70 | 28 | 0.0 | 3.0 | 0.00 | 0.00 | 0.00 | 44 | 1015.0 |
| 20260904041605 | 71 | 342 | 0.0 | 4.0 | 0.00 | 0.00 | 0.00 | 43 | 1015.1 |
| 20260904041038 | 71 | 0 | 0.0 | 4.0 | 0.00 | 0.00 | 0.00 | 43 | 1015.1 |
| 20260904040537 | 71 | 53 | 1.0 | 4.0 | 0.00 | 0.00 | 0.00 | 42 | 1015.1 |
| 20260904040104 | 71 | 0 | 0.0 | 2.0 | 0.00 | 0.00 | 0.00 | 44 | 1015.1 |
| 20260904035537 | 72 | 0 | 0.0 | 1.0 | 0.00 | 0.00 | 0.00 | 44 | 1015.1 |
| 20260904035037 | 72 | 0 | 0.0 | 3.0 | 0.00 | 0.00 | 0.00 | 45 | 1015.1 |
| 20260904034602 | 73 | 0 | 0.0 | 3.0 | 0.00 | 0.00 | 0.00 | 40 | 1015.0 |
| 20260904034038 | 73 | 133 | 0.0 | 3.0 | 0.00 | 0.00 | 0.00 | 40 | 1015.1 |
| 20260904033538 | 74 | 0 | 0.0 | 3.0 | 0.00 | 0.00 | 0.00 | 39 | 1015.0 |
| 20260904033053 | 74 | 0 | 0.0 | 7.0 | 0.00 | 0.00 | 0.00 | 40 | 1014.9 |
| 20260904032537 | 75 | 0 | 0.0 | 7.0 | 0.00 | 0.00 | 0.00 | 38 | 1014.9 |
| 20260904032039 | 75 | 73 | 3.0 | 7.0 | 0.00 | 0.00 | 0.00 | 37 | 1014.7 |
| 20260904031555 | 75 | 87 | 3.0 | 9.0 | 0.00 | 0.00 | 0.00 | 39 | 1014.6 |
| 20260904031037 | 76 | 94 | 3.0 | 9.0 | 0.00 | 0.00 | 0.00 | 37 | 1014.5 |
| 20260904030537 | 76 | 73 | 4.0 | 9.0 | 0.00 | 0.00 | 0.00 | 36 | 1014.5 |
| 20260904025538 | 77 | 91 | 3.0 | 6.0 | 0.00 | 0.00 | 0.00 | 37 | 1014.6 |
| 20260904025038 | 77 | 84 | 3.0 | 8.0 | 0.00 | 0.00 | 0.00 | 36 | 1014.4 |
| 20260904024600 | 77 | 89 | 2.0 | 8.0 | 0.00 | 0.00 | 0.00 | 35 | 1014.4 |
| 20260904024037 | 77 | 98 | 4.0 | 8.0 | 0.00 | 0.00 | 0.00 | 36 | 1014.4 |
| 20260904023538 | 77 | 105 | 4.0 | 8.0 | 0.00 | 0.00 | 0.00 | 35 | 1014.3 |
| 20260904023056 | 77 | 103 | 4.0 | 8.0 | 0.00 | 0.00 | 0.00 | 36 | 1014.3 |
| 20260904022539 | 78 | 106 | 4.0 | 8.0 | 0.00 | 0.00 | 0.00 | 35 | 1014.2 |
| 20260904022037 | 78 | 102 | 4.0 | 10.0 | 0.00 | 0.00 | 0.00 | 34 | 1014.1 |
| 20260904021559 | 78 | 162 | 4.0 | 10.0 | 0.00 | 0.00 | 0.00 | 36 | 1014.1 |
| 20260904021037 | 78 | 158 | 6.0 | 9.0 | 0.00 | 0.00 | 0.00 | 35 | 1014.1 |
| 20260904020537 | 79 | 179 | 5.0 | 11.0 | 0.00 | 0.00 | 0.00 | 35 | 1014.0 |
| 20260904020055 | 79 | 162 | 6.0 | 11.0 | 0.00 | 0.00 | 0.00 | 36 | 1013.9 |
| 20260904015540 | 79 | 152 | 6.0 | 10.0 | 0.00 | 0.00 | 0.00 | 35 | 1013.9 |
| 20260904015037 | 80 | 156 | 6.0 | 10.0 | 0.00 | 0.00 | 0.00 | 34 | 1013.9 |
| 20260904014607 | 80 | 156 | 6.0 | 9.0 | 0.00 | 0.00 | 0.00 | 34 | 1013.9 |
| 20260904014038 | 80 | 154 | 5.0 | 10.0 | 0.00 | 0.00 | 0.00 | 32 | 1013.9 |
| 20260904013537 | 81 | 158 | 5.0 | 10.0 | 0.00 | 0.00 | 0.00 | 32 | 1013.9 |
| 20260904013120 | 81 | 347 | 4.0 | 10.0 | 0.00 | 0.00 | 0.00 | 33 | 1013.9 |
| 20260904012538 | 81 | 347 | 5.0 | 10.0 | 0.00 | 0.00 | 0.00 | 31 | 1013.9 |
| 20260904012037 | 82 | 347 | 5.0 | 9.0 | 0.00 | 0.00 | 0.00 | 30 | 1013.9 |
| 20260904011642 | 82 | 347 | 4.0 | 10.0 | 0.00 | 0.00 | 0.00 | 30 | 1013.9 |
| 20260904011037 | 83 | 347 | 5.0 | 12.0 | 0.00 | 0.00 | 0.00 | 32 | 1013.8 |
| 20260904010537 | 83 | 123 | 5.0 | 12.0 | 0.00 | 0.00 | 0.00 | 30 | 1013.9 |
| 20260904010054 | 83 | 79 | 7.0 | 11.0 | 0.00 | 0.00 | 0.00 | 30 | 1013.9 |
| 20260904005541 | 83 | 89 | 7.0 | 11.0 | 0.00 | 0.00 | 0.00 | 29 | 1013.8 |
| 20260904005037 | 83 | 90 | 5.0 | 9.0 | 0.00 | 0.00 | 0.00 | 29 | 1013.8 |
| 20260904004600 | 84 | 85 | 5.0 | 10.0 | 0.00 | 0.00 | 0.00 | 28 | 1013.8 |
| 20260904004037 | 84 | 92 | 5.0 | 10.0 | 0.00 | 0.00 | 0.00 | 28 | 1013.8 |
| 20260904003537 | 84 | 97 | 6.0 | 10.0 | 0.00 | 0.00 | 0.00 | 28 | 1013.8 |
| 20260904003058 | 84 | 80 | 7.0 | 11.0 | 0.00 | 0.00 | 0.00 | 29 | 1013.8 |
| 20260904002538 | 85 | 68 | 6.0 | 12.0 | 0.00 | 0.00 | 0.00 | 27 | 1013.8 |
| 20260904002038 | 85 | 81 | 8.0 | 15.0 | 0.00 | 0.00 | 0.00 | 26 | 1013.8 |
| 20260904001557 | 85 | 90 | 10.0 | 15.0 | 0.00 | 0.00 | 0.00 | 27 | 1013.8 |
| 20260904001037 | 85 | 77 | 7.0 | 15.0 | 0.00 | 0.00 | 0.00 | 27 | 1013.8 |
| 20260904000537 | 85 | 73 | 10.0 | 15.0 | 0.00 | 0.00 | 0.00 | 26 | 1013.8 |
| 20260904000053 | 85 | 87 | 10.0 | 14.0 | 0.00 | 0.00 | 0.00 | 26 | 1013.8 |
| 20260903235537 | 85 | 94 | 8.0 | 15.0 | 0.00 | 0.00 | 0.00 | 27 | 1013.7 |
| 20260903235037 | 85 | 88 | 7.0 | 16.0 | 0.00 | 0.00 | 0.00 | 26 | 1013.7 |
| 20260903234602 | 86 | 95 | 10.0 | 16.0 | 0.00 | 0.00 | 0.00 | 27 | 1013.7 |
| 20260903234037 | 86 | 73 | 9.0 | 16.0 | 0.00 | 0.00 | 0.00 | 25 | 1013.7 |
| 20260903233537 | 86 | 85 | 9.0 | 16.0 | 0.00 | 0.00 | 0.00 | 26 | 1013.7 |
| 20260903233059 | 86 | 95 | 10.0 | 16.0 | 0.00 | 0.00 | 0.00 | 26 | 1013.7 |
| 20260903232536 | 86 | 93 | 8.0 | 14.0 | 0.00 | 0.00 | 0.00 | 26 | 1013.8 |
| 20260903232037 | 86 | 72 | 9.0 | 15.0 | 0.00 | 0.00 | 0.00 | 24 | 1013.8 |
| 20260903231603 | 86 | 77 | 7.0 | 15.0 | 0.00 | 0.00 | 0.00 | 25 | 1013.8 |
| 20260903231038 | 86 | 81 | 9.0 | 15.0 | 0.00 | 0.00 | 0.00 | 26 | 1013.8 |
| 20260903230536 | 86 | 85 | 9.0 | 14.0 | 0.00 | 0.00 | 0.00 | 26 | 1013.9 |
| 20260903230058 | 86 | 72 | 10.0 | 14.0 | 0.00 | 0.00 | 0.00 | 25 | 1013.9 |
| 20260903225538 | 87 | 79 | 5.0 | 12.0 | 0.00 | 0.00 | 0.00 | 25 | 1013.9 |
| 20260903225038 | 87 | 65 | 6.0 | 10.0 | 0.00 | 0.00 | 0.00 | 25 | 1013.9 |
| 20260903224601 | 87 | 81 | 2.0 | 10.0 | 0.00 | 0.00 | 0.00 | 22 | 1014.0 |
| 20260903224037 | 87 | 149 | 4.0 | 10.0 | 0.00 | 0.00 | 0.00 | 22 | 1014.1 |
| 20260903223536 | 87 | 195 | 4.0 | 18.0 | 0.00 | 0.00 | 0.00 | 22 | 1014.1 |
| 20260903223104 | 87 | 148 | 7.0 | 18.0 | 0.00 | 0.00 | 0.00 | 22 | 1014.1 |
| 20260903222537 | 86 | 131 | 3.0 | 9.0 | 0.00 | 0.00 | 0.00 | 23 | 1014.0 |
| 20260903222038 | 87 | 74 | 1.0 | 12.0 | 0.00 | 0.00 | 0.00 | 25 | 1014.1 |
| 20260903221602 | 87 | 97 | 2.0 | 12.0 | 0.00 | 0.00 | 0.00 | 22 | 1014.2 |
| 20260903221037 | 87 | 88 | 5.0 | 15.0 | 0.00 | 0.00 | 0.00 | 23 | 1014.3 |
| 20260903220620 | 87 | 145 | 4.0 | 15.0 | 0.00 | 0.00 | 0.00 | 22 | 1014.3 |
| 20260903220059 | 87 | 136 | 5.0 | 15.0 | 0.00 | 0.00 | 0.00 | 22 | 1014.2 |
| 20260903215538 | 87 | 121 | 6.0 | 16.0 | 0.00 | 0.00 | 0.00 | 22 | 1014.3 |
| 20260903215037 | 87 | 123 | 7.0 | 16.0 | 0.00 | 0.00 | 0.00 | 23 | 1014.3 |
| 20260903214605 | 87 | 103 | 6.0 | 14.0 | 0.00 | 0.00 | 0.00 | 22 | 1014.3 |
| 20260903214039 | 87 | 170 | 6.0 | 14.0 | 0.00 | 0.00 | 0.00 | 23 | 1014.4 |
| 20260903213538 | 87 | 108 | 6.0 | 13.0 | 0.00 | 0.00 | 0.00 | 23 | 1014.3 |
| 20260903213052 | 87 | 152 | 5.0 | 14.0 | 0.00 | 0.00 | 0.00 | 23 | 1014.4 |
| 20260903212537 | 87 | 111 | 4.0 | 14.0 | 0.00 | 0.00 | 0.00 | 24 | 1014.4 |
| 20260903212038 | 87 | 128 | 5.0 | 14.0 | 0.00 | 0.00 | 0.00 | 24 | 1014.4 |
| 20260903211604 | 87 | 88 | 6.0 | 14.0 | 0.00 | 0.00 | 0.00 | 26 | 1014.5 |
| 20260903211036 | 86 | 101 | 5.0 | 14.0 | 0.00 | 0.00 | 0.00 | 25 | 1014.4 |
| 20260903210537 | 86 | 131 | 6.0 | 14.0 | 0.00 | 0.00 | 0.00 | 27 | 1014.6 |
| 20260903210140 | 87 | 113 | 7.0 | 14.0 | 0.00 | 0.00 | 0.00 | 25 | 1014.7 |
| 20260903205537 | 86 | 119 | 6.0 | 14.0 | 0.00 | 0.00 | 0.00 | 26 | 1014.7 |
| 20260903205037 | 86 | 125 | 6.0 | 14.0 | 0.00 | 0.00 | 0.00 | 26 | 1014.9 |
| 20260903204602 | 86 | 75 | 7.0 | 16.0 | 0.00 | 0.00 | 0.00 | 27 | 1014.8 |
| 20260903204037 | 86 | 129 | 4.0 | 16.0 | 0.00 | 0.00 | 0.00 | 25 | 1014.9 |
| 20260903203537 | 86 | 119 | 3.0 | 14.0 | 0.00 | 0.00 | 0.00 | 26 | 1015.1 |
| 20260903203058 | 86 | 118 | 4.0 | 14.0 | 0.00 | 0.00 | 0.00 | 26 | 1015.1 |
| 20260903202537 | 86 | 127 | 3.0 | 14.0 | 0.00 | 0.00 | 0.00 | 25 | 1015.2 |
| 20260903202038 | 86 | 168 | 5.0 | 14.0 | 0.00 | 0.00 | 0.00 | 27 | 1015.2 |
| 20260903201559 | 85 | 136 | 7.0 | 15.0 | 0.00 | 0.00 | 0.00 | 28 | 1015.2 |
| 20260903201036 | 85 | 84 | 7.0 | 17.0 | 0.00 | 0.00 | 0.00 | 28 | 1015.1 |
| 20260903200536 | 85 | 91 | 9.0 | 17.0 | 0.00 | 0.00 | 0.00 | 27 | 1015.0 |
| 20260903200115 | 85 | 144 | 7.0 | 16.0 | 0.00 | 0.00 | 0.00 | 28 | 1015.2 |
| 20260903195541 | 85 | 70 | 9.0 | 16.0 | 0.00 | 0.00 | 0.00 | 26 | 1015.3 |
| 20260903195039 | 86 | 99 | 7.0 | 14.0 | 0.00 | 0.00 | 0.00 | 28 | 1015.3 |
| 20260903194555 | 86 | 144 | 7.0 | 14.0 | 0.00 | 0.00 | 0.00 | 26 | 1015.2 |
| 20260903194037 | 86 | 78 | 1.0 | 6.0 | 0.00 | 0.00 | 0.00 | 25 | 1015.3 |
| 20260903193537 | 86 | 86 | 1.0 | 13.0 | 0.00 | 0.00 | 0.00 | 28 | 1015.3 |
| 20260903193057 | 86 | 87 | 2.0 | 13.0 | 0.00 | 0.00 | 0.00 | 26 | 1015.4 |
| 20260903192537 | 85 | 314 | 6.0 | 13.0 | 0.00 | 0.00 | 0.00 | 22 | 1015.5 |
| 20260903192036 | 85 | 66 | 1.0 | 7.0 | 0.00 | 0.00 | 0.00 | 23 | 1015.5 |
| 20260903191604 | 85 | 352 | 3.0 | 8.0 | 0.00 | 0.00 | 0.00 | 22 | 1015.6 |
| 20260903191037 | 85 | 0 | 2.0 | 8.0 | 0.00 | 0.00 | 0.00 | 26 | 1015.6 |
| 20260903190539 | 85 | 94 | 3.0 | 8.0 | 0.00 | 0.00 | 0.00 | 24 | 1015.6 |
| 20260903190059 | 85 | 74 | 3.0 | 7.0 | 0.00 | 0.00 | 0.00 | 24 | 1015.8 |
| 20260903185536 | 85 | 14 | 0.0 | 10.0 | 0.00 | 0.00 | 0.00 | 27 | 1015.8 |
| 20260903185036 | 85 | 100 | 4.0 | 10.0 | 0.00 | 0.00 | 0.00 | 24 | 1016.0 |
| 20260903184559 | 85 | 126 | 3.0 | 9.0 | 0.00 | 0.00 | 0.00 | 27 | 1016.0 |
| 20260903184041 | 85 | 90 | 3.0 | 13.0 | 0.00 | 0.00 | 0.00 | 28 | 1016.0 |
| 20260903183537 | 85 | 144 | 5.0 | 13.0 | 0.00 | 0.00 | 0.00 | 28 | 1016.0 |
| 20260903183057 | 85 | 143 | 4.0 | 10.0 | 0.00 | 0.00 | 0.00 | 26 | 1016.2 |
| 20260903182537 | 84 | 101 | 3.0 | 10.0 | 0.00 | 0.00 | 0.00 | 27 | 1016.2 |
| 20260903182036 | 84 | 122 | 3.0 | 10.0 | 0.00 | 0.00 | 0.00 | 27 | 1016.3 |
| 20260903181556 | 84 | 142 | 3.0 | 10.0 | 0.00 | 0.00 | 0.00 | 28 | 1016.4 |
| 20260903181036 | 84 | 89 | 2.0 | 8.0 | 0.00 | 0.00 | 0.00 | 26 | 1016.4 |
| 20260903180537 | 83 | 190 | 2.0 | 9.0 | 0.00 | 0.00 | 0.00 | 27 | 1016.5 |
| 20260903180058 | 84 | 123 | 3.0 | 10.0 | 0.00 | 0.00 | 0.00 | 30 | 1016.5 |
| 20260903175537 | 84 | 119 | 4.0 | 10.0 | 0.00 | 0.00 | 0.00 | 31 | 1016.6 |
| 20260903175037 | 84 | 140 | 2.0 | 7.0 | 0.00 | 0.00 | 0.00 | 31 | 1016.7 |
| 20260903174553 | 83 | 156 | 2.0 | 7.0 | 0.00 | 0.00 | 0.00 | 31 | 1016.8 |
| 20260903174037 | 82 | 181 | 1.0 | 6.0 | 0.00 | 0.00 | 0.00 | 31 | 1016.8 |
| 20260903173537 | 82 | 83 | 3.0 | 6.0 | 0.00 | 0.00 | 0.00 | 29 | 1016.8 |
| 20260903173058 | 81 | 117 | 1.0 | 6.0 | 0.00 | 0.00 | 0.00 | 33 | 1016.8 |
| 20260903172537 | 81 | 148 | 2.0 | 6.0 | 0.00 | 0.00 | 0.00 | 33 | 1016.8 |
| 20260903172037 | 82 | 179 | 2.0 | 7.0 | 0.00 | 0.00 | 0.00 | 31 | 1016.8 |
| 20260903171612 | 82 | 107 | 2.0 | 7.0 | 0.00 | 0.00 | 0.00 | 36 | 1016.8 |
| 20260903171036 | 81 | 134 | 4.0 | 7.0 | 0.00 | 0.00 | 0.00 | 39 | 1016.8 |
| 20260903170537 | 80 | 133 | 2.0 | 7.0 | 0.00 | 0.00 | 0.00 | 39 | 1016.8 |
| 20260903170058 | 79 | 109 | 3.0 | 6.0 | 0.00 | 0.00 | 0.00 | 46 | 1016.9 |
| 20260903165536 | 79 | 78 | 0.0 | 6.0 | 0.00 | 0.00 | 0.00 | 49 | 1016.9 |
| 20260903165037 | 79 | 92 | 2.0 | 6.0 | 0.00 | 0.00 | 0.00 | 45 | 1016.9 |
| 20260903164606 | 78 | 0 | 3.0 | 6.0 | 0.00 | 0.00 | 0.00 | 46 | 1017.0 |
| 20260903164037 | 77 | 128 | 1.0 | 7.0 | 0.00 | 0.00 | 0.00 | 49 | 1017.0 |
| 20260903163538 | 77 | 168 | 2.0 | 7.0 | 0.00 | 0.00 | 0.00 | 47 | 1017.0 |
| 20260903163101 | 77 | 106 | 1.0 | 7.0 | 0.00 | 0.00 | 0.00 | 49 | 1017.0 |
| 20260903162537 | 77 | 131 | 2.0 | 7.0 | 0.00 | 0.00 | 0.00 | 47 | 1016.9 |
| 20260903162037 | 77 | 209 | 3.0 | 9.0 | 0.00 | 0.00 | 0.00 | 48 | 1016.8 |
| 20260903161558 | 77 | 194 | 3.0 | 9.0 | 0.00 | 0.00 | 0.00 | 49 | 1016.8 |
| 20260903161036 | 76 | 178 | 3.0 | 8.0 | 0.00 | 0.00 | 0.00 | 49 | 1016.9 |
| 20260903160535 | 76 | 108 | 3.0 | 9.0 | 0.00 | 0.00 | 0.00 | 49 | 1016.8 |
| 20260903160105 | 75 | 133 | 1.0 | 9.0 | 0.00 | 0.00 | 0.00 | 52 | 1016.7 |
| 20260903155538 | 75 | 125 | 1.0 | 6.0 | 0.00 | 0.00 | 0.00 | 52 | 1016.7 |
| 20260903155039 | 75 | 187 | 1.0 | 6.0 | 0.00 | 0.00 | 0.00 | 51 | 1016.9 |
| 20260903154559 | 74 | 242 | 1.0 | 5.0 | 0.00 | 0.00 | 0.00 | 56 | 1017.1 |
| 20260903154039 | 74 | 73 | 1.0 | 5.0 | 0.00 | 0.00 | 0.00 | 54 | 1017.0 |
| 20260903153534 | 74 | 204 | 2.0 | 7.0 | 0.00 | 0.00 | 0.00 | 52 | 1016.9 |
| 20260903153108 | 73 | 0 | 1.0 | 9.0 | 0.00 | 0.00 | 0.00 | 53 | 1016.8 |
| 20260903152535 | 73 | 113 | 2.0 | 9.0 | 0.00 | 0.00 | 0.00 | 51 | 1016.8 |
| 20260903152034 | 72 | 112 | 3.0 | 9.0 | 0.00 | 0.00 | 0.00 | 54 | 1016.7 |
| 20260903151608 | 72 | 192 | 2.0 | 6.0 | 0.00 | 0.00 | 0.00 | 56 | 1017.1 |
| 20260903151034 | 71 | 239 | 1.0 | 3.0 | 0.00 | 0.00 | 0.00 | 54 | 1017.1 |
| 20260903150535 | 71 | 0 | 0.0 | 5.0 | 0.00 | 0.00 | 0.00 | 57 | 1017.1 |
| 20260903150108 | 70 | 250 | 0.0 | 7.0 | 0.00 | 0.00 | 0.00 | 61 | 1017.1 |
| 20260903145537 | 69 | 79 | 1.0 | 7.0 | 0.00 | 0.00 | 0.00 | 60 | 1016.8 |
| 20260903145037 | 69 | 280 | 2.0 | 7.0 | 0.00 | 0.00 | 0.00 | 63 | 1017.1 |
| 20260903144601 | 67 | 102 | 2.0 | 8.0 | 0.00 | 0.00 | 0.00 | 65 | 1016.8 |
| 20260903144035 | 65 | 54 | 0.0 | 8.0 | 0.00 | 0.00 | 0.00 | 68 | 1017.0 |
| 20260903143534 | 64 | 227 | 3.0 | 7.0 | 0.00 | 0.00 | 0.00 | 72 | 1017.3 |
| 20260903143056 | 63 | 49 | 2.0 | 5.0 | 0.00 | 0.00 | 0.00 | 74 | 1016.9 |
| 20260903142535 | 62 | 0 | 0.0 | 6.0 | 0.00 | 0.00 | 0.00 | 74 | 1017.2 |
| 20260903142035 | 62 | 202 | 2.0 | 6.0 | 0.00 | 0.00 | 0.00 | 76 | 1016.9 |
| 20260903141556 | 61 | 244 | 2.0 | 6.0 | 0.00 | 0.00 | 0.00 | 77 | 1016.9 |
| 20260903141035 | 60 | 342 | 0.0 | 2.0 | 0.00 | 0.00 | 0.00 | 78 | 1016.8 |
| 20260903140536 | 60 | 0 | 0.0 | 7.0 | 0.00 | 0.00 | 0.00 | 79 | 1016.8 |
| 20260903140113 | 59 | 0 | 0.0 | 7.0 | 0.00 | 0.00 | 0.00 | 79 | 1016.8 |
| 20260903135534 | 59 | 253 | 2.0 | 10.0 | 0.00 | 0.00 | 0.00 | 80 | 1017.1 |
| 20260903135035 | 58 | 232 | 1.0 | 10.0 | 0.00 | 0.00 | 0.00 | 81 | 1017.1 |
| 20260903134600 | 58 | 0 | 1.0 | 7.0 | 0.00 | 0.00 | 0.00 | 82 | 1016.7 |
| 20260903134036 | 58 | 0 | 1.0 | 7.0 | 0.00 | 0.00 | 0.00 | 82 | 1017.0 |
| 20260903133539 | 58 | 244 | 2.0 | 7.0 | 0.00 | 0.00 | 0.00 | 82 | 1017.1 |
| 20260903133103 | 58 | 29 | 3.0 | 5.0 | 0.00 | 0.00 | 0.00 | 83 | 1016.6 |
| 20260903132534 | 57 | 16 | 1.0 | 5.0 | 0.00 | 0.00 | 0.00 | 85 | 1016.8 |
| 20260903132034 | 57 | 40 | 0.0 | 5.0 | 0.00 | 0.00 | 0.00 | 86 | 1016.7 |
| 20260903131608 | 56 | 187 | 1.0 | 5.0 | 0.00 | 0.00 | 0.00 | 86 | 1016.4 |
| 20260903131037 | 56 | 0 | 0.0 | 4.0 | 0.00 | 0.00 | 0.00 | 87 | 1016.4 |
| 20260903130539 | 55 | 241 | 1.0 | 4.0 | 0.00 | 0.00 | 0.00 | 87 | 1016.6 |
| 20260903130055 | 54 | 63 | 0.0 | 4.0 | 0.00 | 0.00 | 0.00 | 86 | 1016.2 |
| 20260903125537 | 54 | 233 | 1.0 | 4.0 | 0.00 | 0.00 | 0.00 | 86 | 1016.3 |
| 20260903125037 | 54 | 243 | 0.0 | 5.0 | 0.00 | 0.00 | 0.00 | 85 | 1016.3 |
| 20260903124600 | 54 | 0 | 0.0 | 5.0 | 0.00 | 0.00 | 0.00 | 85 | 1016.3 |
| 20260903124038 | 54 | 4 | 1.0 | 6.0 | 0.00 | 0.00 | 0.00 | 85 | 1016.3 |
| 20260903123537 | 54 | 18 | 1.0 | 6.0 | 0.00 | 0.00 | 0.00 | 84 | 1016.1 |
| 20260903123055 | 54 | 171 | 1.0 | 3.0 | 0.00 | 0.00 | 0.00 | 84 | 1015.9 |
| 20260903122537 | 54 | 231 | 0.0 | 3.0 | 0.00 | 0.00 | 0.00 | 84 | 1015.9 |
| 20260903122036 | 55 | 216 | 0.0 | 7.0 | 0.00 | 0.00 | 0.00 | 85 | 1015.9 |
| 20260903121555 | 55 | 0 | 0.0 | 7.0 | 0.00 | 0.00 | 0.00 | 85 | 1015.9 |
| 20260903121036 | 55 | 230 | 1.0 | 4.0 | 0.00 | 0.00 | 0.00 | 85 | 1015.9 |
| 20260903120536 | 55 | 31 | 0.0 | 3.0 | 0.00 | 0.00 | 0.00 | 85 | 1015.9 |
| 20260903120105 | 55 | 0 | 0.0 | 3.0 | 0.00 | 0.00 | 0.00 | 85 | 1016.0 |
| 20260903115537 | 55 | 46 | 1.0 | 5.0 | 0.00 | 0.00 | 0.00 | 85 | 1015.9 |
| 20260903115037 | 55 | 0 | 0.0 | 10.0 | 0.00 | 0.00 | 0.00 | 85 | 1015.9 |
| 20260903114603 | 55 | 73 | 4.0 | 10.0 | 0.00 | 0.00 | 0.00 | 85 | 1015.9 |
| 20260903114036 | 55 | 0 | 1.0 | 7.0 | 0.00 | 0.00 | 0.00 | 85 | 1015.9 |
| 20260903113536 | 56 | 0 | 1.0 | 7.0 | 0.00 | 0.00 | 0.00 | 84 | 1015.9 |
| 20260903113059 | 56 | 0 | 0.0 | 5.0 | 0.00 | 0.00 | 0.00 | 85 | 1015.9 |
| 20260903112537 | 56 | 264 | 2.0 | 5.0 | 0.00 | 0.00 | 0.00 | 85 | 1015.9 |
| 20260903112037 | 56 | 42 | 1.0 | 8.0 | 0.00 | 0.00 | 0.00 | 84 | 1015.7 |
| 20260903111557 | 56 | 2 | 3.0 | 8.0 | 0.00 | 0.00 | 0.00 | 84 | 1015.7 |
| 20260903111036 | 57 | 0 | 0.0 | 2.0 | 0.00 | 0.00 | 0.00 | 85 | 1015.7 |
| 20260903110536 | 57 | 342 | 0.0 | 2.0 | 0.00 | 0.00 | 0.00 | 84 | 1015.6 |
| 20260903110052 | 57 | 0 | 0.0 | 2.0 | 0.00 | 0.00 | 0.00 | 85 | 1015.8 |
| 20260903105536 | 57 | 0 | 0.0 | 2.0 | 0.00 | 0.00 | 0.00 | 85 | 1015.7 |
| 20260903105036 | 57 | 51 | 0.0 | 2.0 | 0.00 | 0.00 | 0.00 | 85 | 1015.7 |
| 20260903104601 | 57 | 51 | 0.0 | 2.0 | 0.00 | 0.00 | 0.00 | 85 | 1015.7 |
| 20260903104036 | 57 | 54 | 1.0 | 2.0 | 0.00 | 0.00 | 0.00 | 85 | 1015.7 |
| 20260903103535 | 57 | 54 | 0.0 | 4.0 | 0.00 | 0.00 | 0.00 | 85 | 1015.8 |
| 20260903103100 | 57 | 0 | 1.0 | 4.0 | 0.00 | 0.00 | 0.00 | 85 | 1015.8 |
| 20260903102537 | 57 | 0 | 1.0 | 4.0 | 0.00 | 0.00 | 0.00 | 85 | 1015.9 |
| 20260903102036 | 57 | 0 | 1.0 | 4.0 | 0.00 | 0.00 | 0.00 | 85 | 1016.0 |
| 20260903101601 | 57 | 0 | 0.0 | 2.0 | 0.00 | 0.00 | 0.00 | 84 | 1015.9 |
| 20260903101035 | 57 | 233 | 0.0 | 2.0 | 0.00 | 0.00 | 0.00 | 83 | 1015.9 |
| 20260903100536 | 57 | 0 | 0.0 | 3.0 | 0.00 | 0.00 | 0.00 | 83 | 1016.0 |
| 20260903100055 | 58 | 0 | 0.0 | 3.0 | 0.00 | 0.00 | 0.00 | 83 | 1016.1 |
| 20260903095534 | 58 | 242 | 0.0 | 6.0 | 0.00 | 0.00 | 0.00 | 84 | 1016.1 |
| 20260903095036 | 58 | 0 | 2.0 | 6.0 | 0.00 | 0.00 | 0.00 | 84 | 1016.0 |
| 20260903094647 | 58 | 342 | 1.0 | 3.0 | 0.00 | 0.00 | 0.00 | 85 | 1016.0 |
| 20260903094035 | 58 | 0 | 0.0 | 3.0 | 0.00 | 0.00 | 0.00 | 84 | 1016.0 |
| 20260903093538 | 58 | 13 | 1.0 | 3.0 | 0.00 | 0.00 | 0.00 | 85 | 1016.1 |
| 20260903093056 | 58 | 327 | 0.0 | 3.0 | 0.00 | 0.00 | 0.00 | 85 | 1016.0 |
| 20260903092542 | 58 | 327 | 0.0 | 3.0 | 0.00 | 0.00 | 0.00 | 85 | 1016.1 |
| 20260903092040 | 58 | 305 | 0.0 | 3.0 | 0.00 | 0.00 | 0.00 | 85 | 1016.3 |
| 20260903091549 | 58 | 347 | 1.0 | 6.0 | 0.00 | 0.00 | 0.00 | 85 | 1016.1 |
| 20260903091041 | 58 | 325 | 2.0 | 6.0 | 0.00 | 0.00 | 0.00 | 85 | 1016.3 |
| 20260903090539 | 59 | 256 | 0.0 | 4.0 | 0.00 | 0.00 | 0.00 | 85 | 1016.3 |
| 20260903090100 | 59 | 135 | 0.0 | 2.0 | 0.00 | 0.00 | 0.00 | 84 | 1016.0 |
| 20260903085539 | 59 | 0 | 0.0 | 0.0 | 0.00 | 0.00 | 0.00 | 84 | 1016.1 |
| 20260903085039 | 59 | 0 | 0.0 | 1.0 | 0.00 | 0.00 | 0.00 | 84 | 1016.1 |
| 20260903084559 | 59 | 0 | 0.0 | 2.0 | 0.00 | 0.00 | 0.00 | 84 | 1016.1 |
| 20260903084039 | 59 | 0 | 0.0 | 3.0 | 0.00 | 0.00 | 0.00 | 83 | 1016.0 |
| 20260903083539 | 59 | 233 | 0.0 | 3.0 | 0.00 | 0.00 | 0.00 | 83 | 1016.1 |
| 20260903083053 | 59 | 252 | 1.0 | 3.0 | 0.00 | 0.00 | 0.00 | 83 | 1016.1 |
| 20260903082539 | 59 | 0 | 0.0 | 1.0 | 0.00 | 0.00 | 0.00 | 82 | 1016.1 |
| 20260903082038 | 60 | 0 | 0.0 | 1.0 | 0.00 | 0.00 | 0.00 | 82 | 1016.1 |
| 20260903081551 | 60 | 0 | 0.0 | 3.0 | 0.00 | 0.00 | 0.00 | 81 | 1016.1 |
| 20260903081039 | 60 | 0 | 0.0 | 3.0 | 0.00 | 0.00 | 0.00 | 80 | 1016.1 |
| 20260903080538 | 60 | 2 | 1.0 | 3.0 | 0.00 | 0.00 | 0.00 | 80 | 1016.1 |
| 20260903080103 | 60 | 314 | 0.0 | 2.0 | 0.00 | 0.00 | 0.00 | 80 | 1016.1 |
| 20260903075538 | 60 | 0 | 0.0 | 1.0 | 0.00 | 0.00 | 0.00 | 79 | 1016.1 |
| 20260903075038 | 61 | 0 | 0.0 | 0.0 | 0.00 | 0.00 | 0.00 | 79 | 1016.1 |
| 20260903074605 | 61 | 0 | 0.0 | 1.0 | 0.00 | 0.00 | 0.00 | 78 | 1016.1 |
| 20260903074038 | 61 | 0 | 0.0 | 1.0 | 0.00 | 0.00 | 0.00 | 76 | 1016.1 |
| 20260903073542 | 61 | 0 | 0.0 | 1.0 | 0.00 | 0.00 | 0.00 | 76 | 1016.1 |
| 20260903073056 | 62 | 0 | 0.0 | 0.0 | 0.00 | 0.00 | 0.00 | 75 | 1016.1 |
| 20260903072538 | 62 | 0 | 0.0 | 0.0 | 0.00 | 0.00 | 0.00 | 74 | 1016.1 |
| 20260903072038 | 62 | 0 | 0.0 | 3.0 | 0.00 | 0.00 | 0.00 | 74 | 1016.1 |
| 20260903071552 | 62 | 0 | 0.0 | 3.0 | 0.00 | 0.00 | 0.00 | 74 | 1016.1 |
| 20260903071038 | 63 | 266 | 0.0 | 2.0 | 0.00 | 0.00 | 0.00 | 74 | 1016.1 |
| 20260903070538 | 63 | 296 | 0.0 | 2.0 | 0.00 | 0.00 | 0.00 | 74 | 1016.0 |
| 20260903070103 | 63 | 283 | 0.0 | 1.0 | 0.00 | 0.00 | 0.00 | 75 | 1016.1 |
| 20260903065539 | 63 | 0 | 0.0 | 2.0 | 0.00 | 0.00 | 0.00 | 75 | 1016.1 |
| 20260903065037 | 63 | 0 | 0.0 | 2.0 | 0.00 | 0.00 | 0.00 | 75 | 1016.1 |
| 20260903064606 | 63 | 0 | 0.0 | 2.0 | 0.00 | 0.00 | 0.00 | 74 | 1016.2 |
| 20260903064039 | 63 | 0 | 0.0 | 3.0 | 0.00 | 0.00 | 0.00 | 72 | 1016.1 |
| 20260903063539 | 64 | 0 | 0.0 | 3.0 | 0.00 | 0.00 | 0.00 | 73 | 1016.0 |
| 20260903063058 | 64 | 322 | 1.0 | 3.0 | 0.00 | 0.00 | 0.00 | 73 | 1016.0 |
| 20260903062538 | 64 | 339 | 1.0 | 5.0 | 0.00 | 0.00 | 0.00 | 72 | 1016.0 |
| 20260903062038 | 64 | 29 | 1.0 | 5.0 | 0.00 | 0.00 | 0.00 | 72 | 1016.1 |
| 20260903061553 | 64 | 315 | 2.0 | 5.0 | 0.00 | 0.00 | 0.00 | 72 | 1016.1 |
| 20260903061040 | 64 | 304 | 0.0 | 3.0 | 0.00 | 0.00 | 0.00 | 71 | 1016.0 |
| 20260903060538 | 64 | 336 | 0.0 | 2.0 | 0.00 | 0.00 | 0.00 | 71 | 1016.3 |
| 20260903060100 | 64 | 297 | 0.0 | 1.0 | 0.00 | 0.00 | 0.00 | 71 | 1016.2 |
| 20260903055538 | 64 | 0 | 0.0 | 1.0 | 0.00 | 0.00 | 0.00 | 70 | 1016.2 |
| 20260903055042 | 64 | 0 | 0.0 | 2.0 | 0.00 | 0.00 | 0.00 | 70 | 1016.3 |
| 20260903054613 | 64 | 0 | 0.0 | 2.0 | 0.00 | 0.00 | 0.00 | 70 | 1016.3 |
| 20260903054039 | 64 | 0 | 0.0 | 2.0 | 0.00 | 0.00 | 0.00 | 70 | 1016.4 |
| 20260903053538 | 64 | 0 | 0.0 | 2.0 | 0.00 | 0.00 | 0.00 | 70 | 1016.6 |
| 20260903053105 | 64 | 301 | 0.0 | 3.0 | 0.00 | 0.00 | 0.00 | 70 | 1016.6 |
| 20260903052541 | 64 | 284 | 0.0 | 3.0 | 0.00 | 0.00 | 0.00 | 70 | 1016.6 |
| 20260903052038 | 64 | 0 | 0.0 | 3.0 | 0.00 | 0.00 | 0.00 | 70 | 1016.6 |
| 20260903051559 | 65 | 252 | 1.0 | 3.0 | 0.00 | 0.00 | 0.00 | 70 | 1016.6 |